Snowfall_Accumulation
0.0 0.0 0.0 0.0 0.0 0.0 0.0 0.0 0.0 0.0 0.0 0.0 0.0 0.0 0.0 0.0 0.0 0.0 0.0 0.0 0.0 0.0
0.0 0.0 0.0 0.0 0.0 0.0 0.0 0.0 0.0 0.0 0.0 0.0 0.0 0.0 0.0 0.0 0.0 0.0 0.0 0.0 0.0 0.0
0.0 0.0 0.0 0.0 0.0 0.0 0.0 0.0 0.0 0.0 0.0 0.0 0.0 0.0 0.0 0.0 0.0 0.0 0.0 0.0 0.0 0.0
0.0 0.4 0.0 0.0 0.0 0.0 0.0 0.0 0.0 0.0 0.0 0.0 0.0 0.0 0.0 0.0 0.0 0.0 0.0 0.0 0.0 0.0
1.6 1.3 0.7 0.0 0.0 0.0 0.0 0.0 0.0 0.0 0.0 0.0 0.0 0.0 0.0 0.0 0.0 0.0 0.0 0.0 0.0 0.0
1.8 2.1 2.1 2.3 0.0 0.0 0.0 0.0 0.0 0.0 0.0 0.0 0.0 0.0 0.0 0.0 0.0 0.0 0.0 0.0 0.0 0.0
2.4 2.4 3.0 3.0 3.1 1.3 0.0 0.0 0.0 0.0 0.0 0.0 0.0 0.0 0.0 0.0 0.0 0.0 0.0 0.0 0.0 0.0
2.5 2.9 2.8 3.5 3.6 3.5 4.0 3.2 2.8 1.8 0.7 0.0 0.0 0.0 0.0 0.0 0.0 0.0 0.0 0.0 0.0 0.0
2.3 2.5 2.9 3.3 3.9 4.2 4.3 4.7 5.2 5.4 2.3 3.9 0.6 0.0 0.0 0.1 0.1 0.1 0.1 0.0 0.2 0.0
2.3 2.4 2.8 3.2 3.2 3.7 4.5 4.8 4.7 5.3 5.9 6.0 5.2 0.0 0.0 0.9 0.7 0.5 0.3 0.1 0.1 0.1
1.7 2.2 2.5 2.8 3.1 3.5 3.9 4.3 4.7 4.6 4.8 5.4 3.5 3.3 0.0 3.5 2.6 2.2 2.0 1.7 1.4 0.9
1.6 1.8 2.0 2.2 2.8 3.1 3.5 3.8 4.2 4.7 4.6 4.5 4.9 4.5 3.7 2.8 2.6 2.4 2.2 1.8 1.5 1.1
1.3 1.5 1.7 2.0 2.3 2.6 2.9 3.4 3.7 4.0 4.8 4.2 3.6 3.5 3.2 2.4 2.3 2.2 1.9 1.8 1.3 0.8
0.7 1.1 1.4 1.6 1.7 2.0 2.2 2.4 2.9 3.3 3.4 3.5 3.7 3.3 2.8 2.2 2.0 1.6 1.4 1.3 1.2 0.9